CST,Max TemperatureF,Mean TemperatureF,Min TemperatureF,Max Dew PointF,MeanDew PointF,Min DewpointF,Max Humidity, Mean Humidity, Min Humidity, Max Sea Level PressureIn, Mean Sea Level PressureIn, Min Sea Level PressureIn, Max VisibilityMiles, Mean VisibilityMiles, Min VisibilityMiles, Max Wind SpeedMPH, Mean Wind SpeedMPH, Max Gust SpeedMPH,PrecipitationIn, CloudCover, Events, WindDirDegrees
2013-2-1,23,6,-11,19,5,-18,86,76,65,30.15,29.99,29.89,10,9,3,15,5,20,0.12,8,Snow,327
2013-2-2,35,20,5,28,10,0,93,78,67,30.16,30.05,29.91,10,8,0,36,10,53,0.75,7,Rain-Snow,296
2013-2-3,23,18,12,19,14,7,86,80,68,30.09,29.94,29.84,10,10,10,12,6,,0.00,7,Snow,89
2013-2-4,37,26,14,30,22,9,93,82,70,29.96,29.74,29.60,10,9,5,20,8,24,0.00,6,,224
2013-2-5,33,26,19,27,22,16,93,75,64,29.96,29.87,29.68,10,10,8,21,12,26,0.00,7,,302
2013-2-6,37,26,15,28,22,12,93,85,70,30.07,29.83,29.68,10,8,2,16,7,18,0.00,4,,58
2013-2-7,26,22,17,25,19,16,100,91,86,30.16,30.12,30.06,10,5,2,14,7,18,0.00,8,,113
2013-2-8,26,22,19,25,23,19,100,92,86,30.08,29.99,29.91,10,9,5,20,11,22,0.00,8,,169
2013-2-9,28,19,10,25,21,9,100,92,85,29.91,29.86,29.81,8,4,0,8,4,,0.00,5,Fog,277
2013-2-10,30,20,10,28,19,9,100,89,80,29.98,29.83,29.77,10,6,0,25,7,36,0.18,8,Fog-Rain-Snow,327
2013-2-11,26,22,17,18,16,14,93,81,69,30.04,29.96,29.81,10,9,3,18,13,24,0.09,6,Snow,281
2013-2-12,35,25,15,28,21,12,87,80,70,29.89,29.83,29.77,10,10,10,16,10,,0.01,3,Snow,251
2013-2-13,37,32,28,32,29,23,100,87,69,29.77,29.68,29.57,10,9,2,22,8,32,0.58,7,Snow,274
2013-2-14,32,24,17,27,18,9,86,76,68,30.26,30.10,29.78,10,10,2,22,14,29,0.02,8,Rain-Snow,322
2013-2-15,24,19,14,18,13,9,93,75,59,30.36,30.26,30.04,10,9,2,15,6,16,0.32,5,Snow,318
2013-2-16,37,30,23,28,24,18,100,84,65,30.03,29.88,29.73,10,9,2,13,6,,0.06,3,Snow,203
2013-2-17,41,34,24,32,29,23,93,81,70,29.72,29.55,29.46,10,9,2,23,8,31,0.17,3,Snow,261
2013-2-18,24,11,-2,19,5,-9,86,74,62,30.28,30.04,29.69,10,8,2,23,18,32,0.25,5,Rain-Snow,344
2013-2-19,3,-5,-13,-8,-14,-20,71,63,55,30.40,30.34,30.29,10,10,10,13,5,18,0.00,0,,66
2013-2-20,15,6,-4,7,-3,-11,79,66,53,30.30,30.16,30.06,10,10,3,22,13,30,0.00,6,Snow,131
2013-2-21,23,18,12,16,12,7,80,77,68,30.13,30.10,30.05,10,7,2,16,8,21,0.19,6,Snow,140
2013-2-22,28,17,6,19,12,3,92,78,64,30.05,29.92,29.78,10,9,3,12,6,,0.00,4,Snow,172
2013-2-23,35,18,0,32,14,-4,100,81,60,29.78,29.71,29.67,10,9,0,10,2,,0.00,2,Fog-Snow,150
2013-2-24,33,25,17,32,23,14,100,83,64,30.06,29.96,29.78,10,10,8,17,8,23,0.00,3,Rain,285
2013-2-25,42,26,10,28,19,7,93,71,49,30.04,29.91,29.82,10,10,10,18,5,23,0.00,0,,203
2013-2-26,39,30,21,30,24,18,87,75,56,30.11,29.94,29.83,10,10,8,17,8,25,0.00,4,,297
2013-2-27,32,26,21,27,22,18,100,85,80,30.29,30.22,30.11,10,10,3,15,10,22,0.00,8,Rain,355
2013-2-28,28,24,21,25,19,16,93,80,69,30.29,30.26,30.22,10,10,9,12,4,,0.00,8,,105